Regional Weather Roundup
Issued by NWS

Home | Current Version | Previous Version | Graphics & Text | Print | Product List | Glossary On
Versions: 1 2 3 4 5 6 7 8 9 10 11 12 13 14 15 16 17 18 19 20 21 22 23 24 25 26 27 28 29 30 31 32 33 34 35 36 37 38 39 40 41 42 43 44 45 46 47 48 49 50
000
ASUS43 KLOT 081008
RWRIL

ILLINOIS REGIONAL WEATHER ROUNDUP
NATIONAL WEATHER SERVICE CHICAGO/ROMEOVILLE IL
400 AM CST MON FEB 08 2016

NOTE: "FAIR" INDICATES FEW OR NO CLOUDS BELOW 12,000 FEET WITH NO
SIGNIFICANT WEATHER AND/OR OBSTRUCTIONS TO VISIBILITY.

* THESE STATIONS ARE NOT UNDER NWS QUALITY CONTROL. THEY ALSO MAY NOT
  REPORT WEATHER SUCH AS PRECIPITATION OR FOG.

ILZ001-002-007-009-015-016-024-081100-
NORTHWEST ILLINOIS

CITY           SKY/WX    TMP DP  RH WIND       PRES   REMARKS
MOLINE         CLOUDY    29  20  69 NW28G35   29.71R WCI  14
STERLING*      CLOUDY    30  21  69 W21       29.64S WCI  17
SAVANNA*       CLOUDY    27  19  72 W16G22    29.68R WCI  15
$$

ILZ003-004-008-010-011-017-018-081100-
NORTH CENTRAL ILLINOIS

CITY           SKY/WX    TMP DP  RH WIND       PRES   REMARKS
ROCKFORD       FLURRIES  31  25  78 NW9       29.64S WCI  23
FREEPORT*      CLOUDY    28  19  67 W15G22    29.65F WCI  17
ROCHELLE*      CLOUDY    31  28  88 NW13      29.64S WCI  22
DE KALB*       MIX PCPN  32  32  98 W12       29.62S WCI  23
$$

ILZ005-006-012>014-019>023-081100-
NORTHEAST ILLINOIS

CITY           SKY/WX    TMP DP  RH WIND       PRES   REMARKS
CHICAGO-OHARE  PTCLDY    29  26  89 SW6       29.61F WCI  23
CHICAGO-MIDWAY PTCLDY    31  25  78 SW6       29.63F WCI  25
AURORA         LGT SNOW  33  30  88 SW8       29.63S FOG     WCI  26
LANSING*       CLEAR     29  26  88 SW5       29.64F WCI  23
WAUKEGAN       CLOUDY    30  28  92 CALM      29.60F
DUPAGE AIRPORT MOCLDY    29  25  85 SW7       29.61F WCI  22
KANKAKEE*      CLEAR     32  28  84 W8        29.66F WCI  24
WHEELING       PTCLDY    26  24  92 S5        29.62F WCI  20
MORRIS*        CLOUDY    31  29  90 W7        29.61S WCI  24
ROMEOVILLE*    PTCLDY    29  26  89 SW8       29.63F WCI  21
NORTHERLY ISL    N/A     32  27  82 W7          N/A  WCI  26
$$

LMZ740>746-081100-
SOUTHERN LAKE MICHIGAN

STATION/POSITION SKY/WX   TEMP    WIND        PRES    VSBY  WAVE
                          AIR SEA DIR/SP/G                  HT/PER
                          (F)     (DEG/KT/KT) (MB)    (MI)  (FT/S)
HARRISON CRIB              34     260/ 15/ 17   N/A
BURNHAM HARBOR             33     270/  6/ 10   N/A
CALUMET HARBOR             31     220/  5/  7 1003.4F
BURNS HARBOR               34     220/  8/ 10 1004.7F
MICHIGAN CITY              32     180/  9/ 10   N/A
$$

ILZ025>027-034>036-040-047-049-050-058-095>099-081100-
WEST-CENTRAL ILLINOIS

CITY           SKY/WX    TMP DP  RH WIND       PRES   REMARKS
QUINCY         CLOUDY    31  28  89 NW20      29.77S WCI  19
MACOMB*        CLOUDY    31  29  92 NW20G25   29.76S WCI  18
JACKSONVILLE*  CLOUDY    35  33  90 W16G22    29.74F FOG     WCI  25
PITTSFIELD*    CLOUDY    33  30  90 W15G22    29.77F WCI  23
$$

ILZ028>032-037-038-041>044-048-051>054-059>061-081100-
CENTRAL ILLINOIS

CITY           SKY/WX    TMP DP  RH WIND       PRES   REMARKS
PONTIAC        CLOUDY    34  32  93 W9        29.67F WCI  26
BLOOMINGTON    CLOUDY    33  31  93 W10       29.68F WCI  25
DECATUR        CLOUDY    35  28  75 W9        29.71F WCI  28
PEORIA         CLOUDY    33  29  85 NW12G21   29.70S WCI  24
LACON*         LGT RAIN  31  29  91 NW16G23   29.68R WCI  20
LINCOLN*       CLOUDY    34  32  93 W5        29.70F WCI  30
SPRINGFIELD    CLOUDY    35  31  85 W13       29.72F WCI  26
TAYLORVILLE    CLOUDY    32  32 100 W12       29.73F WCI  23
$$

ILZ033-039-045-046-055>057-062-063-081100-
EAST-CENTRAL ILLINOIS

CITY           SKY/WX    TMP DP  RH WIND       PRES   REMARKS
CHAMPAIGN      PTCLDY    31  28  89 W9        29.70F WCI  23
RANTOUL*       CLEAR     33  30  89 W9        29.68F WCI  25
MATTOON        CLOUDY    34  29  82 W12       29.71F WCI  25
PARIS*         CLOUDY    33  32  97 SW7       29.71F WCI  27
$$

ILZ079-100>102-081100-
SOUTHWEST ILLINOIS

CITY           SKY/WX    TMP DP  RH WIND       PRES   REMARKS
ALTON          CLOUDY    35  30  80 W14G22    29.77F WCI  26
BELLEVILLE     CLOUDY    38  28  68 W13       29.77F WCI  30
CAHOKIA*       CLOUDY    39  27  62 W8        29.79F WCI  33
SPARTA*        CLOUDY    37  29  73 W3        29.80F
$$

ILZ064>066-069>071-074>076-080>082-084>086-088>090-092>094-081100-
SOUTH-CENTRAL ILLINOIS

CITY           SKY/WX    TMP DP  RH WIND       PRES   REMARKS
CARBONDALE     CLOUDY    38  26  62 W12       29.81S WCI  30
CAIRO*         PTCLDY    38  30  71 W14G20    29.83R WCI  30
EFFINGHAM*     CLOUDY    36  32  87 W10       29.76S WCI  28
MARION         CLOUDY    41  28  60 W7G16     29.81R
MT. VERNON     CLOUDY    37  27  65 W7        29.78F WCI  32
CENTRALIA*     CLOUDY    37  31  82 W14       29.77F WCI  28
SALEM*         MOCLDY    37  31  81 W8        29.77S WCI  30
METROPOLIS*    CLOUDY    42  27  54 W8        29.80S
$$

ILZ067-068-072-073-078-083-087-091-081100-
SOUTHEAST ILLINOIS

CITY           SKY/WX    TMP DP  RH WIND       PRES   REMARKS
LAWRENCEVILLE  CLOUDY    35  33  92 W9        29.75S WCI  28
FLORA*         CLOUDY    38  31  75 W15G21    29.76S WCI  30
FAIRFIELD*     CLOUDY    38  31  76 W8        29.76F WCI  32
HARRISBURG*    CLOUDY    39  32  76 NW22      29.79F WCI  28
ROBINSON*      CLOUDY    32  32  99 SW7       29.75S WCI  26
CARMI*         LGT RAIN  36  34  92 W12G18    29.78S WCI  28
$$

ABBREVIATIONS USED IN REMARKS
   TC - TEMPERATURE IN CELSIUS
  WCI - WIND CHILL INDEX
   HX - HEAT INDEX
  VSB - VISIBILITY
$$




USA.gov is the U.S. government's official web portal to all federal, state and local government web resources and services.